project_name,platform_name,Date_(yyyymmdd),Time_(hh24miss),beacon_ID,latitude_DD,longitude_DD,altitude_m,altitude_result_value_type,speed_m_s,speed_result_value_type,direction_degrees,direction_result_value_type,fix,sat
BaySys,Amundsen,2008-01-15,20:20:35,300034012917920,71.4258,-125.4083,74.6980,Actual,,Calculated,121.1400,Calculated,1,5
BaySys,Amundsen,2008-01-16,00:20:05,300034012917920,71.4257,-125.4061,-7.0669,Actual,,Calculated,52.6200,Calculated,1,8
BaySys,Amundsen,2008-01-17,20:29:30,300034012917920,71.4460,-125.5079,12.1572,Actual,,Calculated,302.1800,Calculated,1,7
BaySys,Amundsen,2008-01-18,06:39:22,300034012917920,71.4620,-125.5877,3.0098,Actual,,Calculated,280.8600,Calculated,1,6
BaySys,Amundsen,2008-01-18,16:41:16,300034012917920,71.4873,-125.6530,95.8106,Actual,,Calculated,204.3700,Calculated,1,8
BaySys,Amundsen,2008-01-18,18:41:59,300034012917920,71.4884,-125.6530,1.5828,Actual,,Calculated,62.3500,Calculated,1,12
BaySys,Amundsen,2008-01-18,20:41:53,300034012917920,71.4884,-125.6489,-6.8173,Actual,,Calculated,150.7700,Calculated,1,9
BaySys,Amundsen,2008-01-18,22:41:28,300034012917920,71.4876,-125.6468,-3.1831,Actual,,Calculated,113.8600,Calculated,1,13
BaySys,Amundsen,2008-01-19,00:41:59,300034012917920,71.4870,-125.6484,-9.8223,Actual,,Calculated,296.1500,Calculated,1,10
BaySys,Amundsen,2008-01-19,02:41:31,300034012917920,71.4859,-125.6534,-6.2333,Actual,,Calculated,163.6700,Calculated,1,9
BaySys,Amundsen,2008-01-20,04:43:23,300034012917920,71.4875,-125.7583,-7.2652,Actual,,Calculated,301.0400,Calculated,1,10
BaySys,Amundsen,2008-01-20,06:43:54,300034012917920,71.4955,-125.7906,2.0882,Actual,,Calculated,307.5200,Calculated,1,10
BaySys,Amundsen,2008-01-20,08:43:33,300034012917920,71.5067,-125.8211,-10.2791,Actual,,Calculated,319.8300,Calculated,1,10
BaySys,Amundsen,2008-01-20,10:43:36,300034012917920,71.5208,-125.8485,0.7058,Actual,,Calculated,320.4700,Calculated,1,11
BaySys,Amundsen,2008-01-20,12:44:05,300034012917920,71.5346,-125.8736,-3.3308,Actual,,Calculated,47.3100,Calculated,1,7
BaySys,Amundsen,2008-01-20,14:44:05,300034012917920,71.5478,-125.9080,-0.8128,Actual,,Calculated,314.3400,Calculated,1,8
BaySys,Amundsen,2008-01-20,16:43:39,300034012917920,71.5622,-125.9523,-2.2970,Actual,,Calculated,313.0700,Calculated,1,9
BaySys,Amundsen,2008-01-20,18:44:05,300034012917920,71.5778,-125.9976,-3.4761,Actual,,Calculated,13.7700,Calculated,1,11
BaySys,Amundsen,2008-01-20,20:44:05,300034012917920,71.5940,-126.0357,-12.3528,Actual,,Calculated,324.5100,Calculated,1,9
BaySys,Amundsen,2008-01-20,22:44:09,300034012917920,71.6103,-126.0697,-2.3154,Actual,,Calculated,329.1400,Calculated,1,12
BaySys,Amundsen,2008-01-21,00:44:01,300034012917920,71.6278,-126.0997,-4.3131,Actual,,Calculated,339.4900,Calculated,1,11
BaySys,Amundsen,2008-01-21,02:44:02,300034012917920,71.6479,-126.1288,8.8610,Actual,,Calculated,318.0000,Calculated,1,9
BaySys,Amundsen,2008-01-21,04:43:57,300034012917920,71.6672,-126.1590,-3.5267,Actual,,Calculated,331.1400,Calculated,1,8
BaySys,Amundsen,2008-01-21,06:44:03,300034012917920,71.6850,-126.1895,4.6611,Actual,,Calculated,332.3500,Calculated,1,10
BaySys,Amundsen,2008-01-21,08:44:02,300034012917920,71.7017,-126.2146,-6.2442,Actual,,Calculated,345.9500,Calculated,1,9
BaySys,Amundsen,2008-01-21,10:44:01,300034012917920,71.7159,-126.2310,-12.8813,Actual,,Calculated,334.1400,Calculated,1,11
BaySys,Amundsen,2008-01-21,12:44:35,300034012917920,71.7293,-126.2486,-2.4985,Actual,,Calculated,32.2700,Calculated,1,8
BaySys,Amundsen,2008-01-21,14:44:35,300034012917920,71.7411,-126.2642,0.4775,Actual,,Calculated,344.5400,Calculated,1,7
BaySys,Amundsen,2008-01-21,16:44:30,300034012917920,71.7518,-126.2747,-4.5843,Actual,,Calculated,351.9600,Calculated,1,9
BaySys,Amundsen,2008-01-21,18:44:12,300034012917920,71.7558,-126.2777,26.2352,Actual,,Calculated,350.5200,Calculated,1,10
BaySys,Amundsen,2008-01-21,20:44:11,300034012917920,71.7547,-126.2756,-24.2976,Actual,,Calculated,199.9400,Calculated,1,9
BaySys,Amundsen,2008-01-21,22:44:10,300034012917920,71.7502,-126.2771,-3.0195,Actual,,Calculated,216.3300,Calculated,1,12
BaySys,Amundsen,2008-01-22,00:44:35,300034012917920,71.7476,-126.2803,-13.8154,Actual,,Calculated,260.2000,Calculated,1,11
BaySys,Amundsen,2008-01-22,02:44:32,300034012917920,71.7484,-126.2834,3.0156,Actual,,Calculated,150.9500,Calculated,1,9
BaySys,Amundsen,2008-01-22,04:44:59,300034012917920,71.7508,-126.2884,-5.8094,Actual,,Calculated,281.8100,Calculated,1,11
BaySys,Amundsen,2008-01-22,06:44:30,300034012917920,71.7528,-126.2936,1.5680,Actual,,Calculated,34.4600,Calculated,1,11
BaySys,Amundsen,2008-01-22,08:44:59,300034012917920,71.7534,-126.2950,3.9772,Actual,,Calculated,134.2700,Calculated,1,12
BaySys,Amundsen,2008-01-22,10:44:49,300034012917920,71.7560,-126.2983,-8.4854,Actual,,Calculated,347.4300,Calculated,1,8
BaySys,Amundsen,2008-01-22,12:44:59,300034012917920,71.7622,-126.3032,-1.2765,Actual,,Calculated,14.3500,Calculated,1,10
BaySys,Amundsen,2008-01-22,14:44:50,300034012917920,71.7687,-126.3112,8.5265,Actual,,Calculated,328.8700,Calculated,1,10
BaySys,Amundsen,2008-01-22,16:44:38,300034012917920,71.7734,-126.3172,0.4388,Actual,,Calculated,287.3900,Calculated,1,11
BaySys,Amundsen,2008-01-22,16:44:38,300034012917920,71.7734,-126.3172,0.4388,Actual,,Calculated,287.3900,Calculated,1,11
BaySys,Amundsen,2008-01-22,18:45:05,300034012917920,71.7766,-126.3262,5.4856,Actual,,Calculated,35.3300,Calculated,1,12
BaySys,Amundsen,2008-01-22,18:45:05,300034012917920,71.7766,-126.3262,5.4856,Actual,,Calculated,35.3300,Calculated,1,12
BaySys,Amundsen,2008-01-22,20:45:06,300034012917920,71.7792,-126.3409,-17.2696,Actual,,Calculated,35.9000,Calculated,1,7
BaySys,Amundsen,2008-01-22,20:45:06,300034012917920,71.7792,-126.3409,-17.2696,Actual,,Calculated,35.9000,Calculated,1,7
BaySys,Amundsen,2008-01-22,22:44:56,300034012917920,71.7836,-126.3566,-3.5845,Actual,,Calculated,303.6300,Calculated,1,11
BaySys,Amundsen,2008-01-22,22:44:56,300034012917920,71.7836,-126.3566,-3.5845,Actual,,Calculated,303.6300,Calculated,1,11
BaySys,Amundsen,2008-01-23,00:45:23,300034012917920,71.7900,-126.3708,-5.2953,Actual,,Calculated,305.0400,Calculated,1,11
BaySys,Amundsen,2008-01-23,00:45:23,300034012917920,71.7900,-126.3708,-5.2953,Actual,,Calculated,305.0400,Calculated,1,11
BaySys,Amundsen,2008-01-23,02:45:18,300034012917920,71.7985,-126.3825,-14.0307,Actual,,Calculated,269.1200,Calculated,1,6
BaySys,Amundsen,2008-01-23,02:45:18,300034012917920,71.7985,-126.3825,-14.0307,Actual,,Calculated,269.1200,Calculated,1,6
BaySys,Amundsen,2008-01-23,04:45:00,300034012917920,71.8089,-126.3938,-3.5188,Actual,,Calculated,27.8700,Calculated,1,10
BaySys,Amundsen,2008-01-23,04:45:00,300034012917920,71.8089,-126.3938,-3.5188,Actual,,Calculated,27.8700,Calculated,1,10
BaySys,Amundsen,2008-01-23,06:44:56,300034012917920,71.8131,-126.3986,7.4876,Actual,,Calculated,184.9500,Calculated,1,6
BaySys,Amundsen,2008-01-23,06:44:56,300034012917920,71.8131,-126.3986,7.4876,Actual,,Calculated,184.9500,Calculated,1,6
BaySys,Amundsen,2008-01-23,08:45:03,300034012917920,71.8096,-126.4025,-13.2080,Actual,,Calculated,186.4500,Calculated,1,10
BaySys,Amundsen,2008-01-23,08:45:03,300034012917920,71.8096,-126.4025,-13.2080,Actual,,Calculated,186.4500,Calculated,1,10
BaySys,Amundsen,2008-01-23,10:45:35,300034012917920,71.7991,-126.4111,-9.7258,Actual,,Calculated,48.9000,Calculated,1,12
BaySys,Amundsen,2008-01-23,10:45:35,300034012917920,71.7991,-126.4111,-9.7258,Actual,,Calculated,48.9000,Calculated,1,12
BaySys,Amundsen,2008-01-23,12:45:20,300034012917920,71.7865,-126.4346,3.0571,Actual,,Calculated,237.3800,Calculated,1,7
BaySys,Amundsen,2008-01-23,12:45:20,300034012917920,71.7865,-126.4346,3.0571,Actual,,Calculated,237.3800,Calculated,1,7
BaySys,Amundsen,2008-01-23,14:45:04,300034012917920,71.7810,-126.4650,-2.2723,Actual,,Calculated,283.3400,Calculated,1,9
BaySys,Amundsen,2008-01-23,14:45:04,300034012917920,71.7810,-126.4650,-2.2723,Actual,,Calculated,283.3400,Calculated,1,9
BaySys,Amundsen,2008-01-24,16:46:00,300034012917920,71.7406,-126.3604,1.2672,Actual,,Calculated,174.8000,Calculated,1,10
BaySys,Amundsen,2008-01-24,18:45:38,300034012917920,71.7198,-126.3663,38.6301,Actual,,Calculated,217.0100,Calculated,1,12
BaySys,Amundsen,2008-01-24,20:46:05,300034012917920,71.7051,-126.3853,-4.6728,Actual,,Calculated,240.1200,Calculated,1,8
BaySys,Amundsen,2008-01-25,06:47:44,300034012917920,71.6877,-126.3163,3.5659,Actual,,Calculated,219.3200,Calculated,1,7
BaySys,Amundsen,2008-01-25,10:47:35,300034012917920,71.6969,-126.3250,12.4974,Actual,,Calculated,98.3900,Calculated,1,10
BaySys,Amundsen,2008-01-25,14:48:16,300034012917920,71.7067,-126.2988,-2.5585,Actual,,Calculated,174.1000,Calculated,1,11
BaySys,Amundsen,2008-01-25,16:48:42,300034012917920,71.7108,-126.2957,-2.2727,Actual,,Calculated,330.5400,Calculated,1,8
BaySys,Amundsen,2008-01-25,18:48:28,300034012917920,71.7131,-126.3015,-11.6830,Actual,,Calculated,44.1600,Calculated,1,8
BaySys,Amundsen,2008-01-25,20:49:57,300034012917920,71.7130,-126.3069,-5.0579,Actual,,Calculated,137.8500,Calculated,1,10
BaySys,Amundsen,2008-01-26,00:59:49,300034012917920,71.7072,-126.3001,2.0697,Actual,,Calculated,147.1900,Calculated,1,9
BaySys,Amundsen,2008-01-26,07:00:12,300034012917920,71.6664,-126.2933,0.7929,Actual,,Calculated,203.4800,Calculated,1,9
BaySys,Amundsen,2008-02-01,01:10:06,300034012917920,71.5876,-126.1592,2.5996,Actual,,Calculated,175.5800,Calculated,1,9
BaySys,Amundsen,2008-02-01,07:10:18,300034012917920,71.5778,-126.1402,-1.2306,Actual,,Calculated,144.2300,Calculated,1,10
BaySys,Amundsen,2008-02-01,09:10:22,300034012917920,71.5752,-126.1328,21.0376,Actual,,Calculated,350.2600,Calculated,1,8
BaySys,Amundsen,2008-02-01,11:19:05,300034012917920,71.5732,-126.1262,-6.6525,Actual,,Calculated,242.7700,Calculated,1,10
BaySys,Amundsen,2008-02-01,13:18:29,300034012917920,71.5706,-126.1201,-430.6573,Actual,,Calculated,67.4600,Calculated,1,9
BaySys,Amundsen,2008-02-01,15:28:19,300034012917920,71.5703,-126.1191,-2.1177,Actual,,Calculated,55.1300,Calculated,1,8
BaySys,Amundsen,2008-02-03,17:38:35,300034012917920,71.5710,-126.1159,-1.9539,Actual,,Calculated,39.1000,Calculated,1,12
BaySys,Amundsen,2008-02-03,19:49:34,300034012917920,71.5707,-126.1124,4.1265,Actual,,Calculated,219.5400,Calculated,1,5
BaySys,Amundsen,2008-02-05,09:58:02,300034012917920,71.5681,-126.1154,-381.3192,Actual,,Calculated,115.4200,Calculated,1,10
BaySys,Amundsen,2008-02-05,12:07:41,300034012917920,71.5710,-126.1158,-7.3261,Actual,,Calculated,268.6700,Calculated,1,7
BaySys,Amundsen,2008-02-09,04:17:35,300034012917920,71.5587,-126.0701,-2.8088,Actual,,Calculated,48.0000,Calculated,1,8
BaySys,Amundsen,2008-02-09,18:27:24,300034012917920,71.5587,-126.0696,-4.9585,Actual,,Calculated,305.9200,Calculated,1,11
BaySys,Amundsen,2008-02-09,20:27:53,300034012917920,71.5587,-126.0696,-4.1460,Actual,,Calculated,126.6400,Calculated,1,11
BaySys,Amundsen,2008-02-10,00:28:05,300034012917920,71.5587,-126.0696,-3.2110,Actual,,Calculated,46.1800,Calculated,1,9
BaySys,Amundsen,2008-02-10,02:37:26,300034012917920,71.5591,-126.0712,250.7528,Actual,,Calculated,203.6900,Calculated,1,8
BaySys,Amundsen,2008-02-10,12:47:42,300034012917920,71.5587,-126.0696,5.3997,Actual,,Calculated,218.1200,Calculated,1,9
BaySys,Amundsen,2008-02-10,16:47:42,300034012917920,71.5587,-126.0696,12.6795,Actual,,Calculated,136.9100,Calculated,1,8
BaySys,Amundsen,2008-02-10,18:57:08,300034012917920,71.5587,-126.0696,-5.8430,Actual,,Calculated,141.5000,Calculated,1,10
BaySys,Amundsen,2008-02-10,20:57:31,300034012917920,71.5587,-126.0698,-1.9138,Actual,,Calculated,355.3900,Calculated,1,11
BaySys,Amundsen,2008-02-10,22:57:35,300034012917920,71.5587,-126.0697,-2.0301,Actual,,Calculated,236.8000,Calculated,1,10
BaySys,Amundsen,2008-02-11,00:57:38,300034012917920,71.5586,-126.0697,-15.9435,Actual,,Calculated,175.9100,Calculated,1,6
BaySys,Amundsen,2008-02-11,02:57:21,300034012917920,71.5586,-126.0697,-33.8777,Actual,,Calculated,279.9200,Calculated,1,9
BaySys,Amundsen,2008-02-11,07:08:26,300034012917920,71.5587,-126.0699,-0.2309,Actual,,Calculated,107.8000,Calculated,1,11
BaySys,Amundsen,2008-02-13,03:17:10,300034012917920,71.6906,-126.5835,-11.4007,Actual,,Calculated,273.7100,Calculated,1,8
BaySys,Amundsen,2008-02-13,17:26:57,300034012917920,71.7560,-126.8881,0.4209,Actual,,Calculated,304.2400,Calculated,1,9
BaySys,Amundsen,2008-02-13,21:30:02,300034012917920,71.7729,-126.9781,2.0297,Actual,,Calculated,295.2400,Calculated,1,11
BaySys,Amundsen,2008-02-13,23:39:51,300034012917920,71.7809,-127.0247,15.3416,Actual,,Calculated,268.5000,Calculated,1,9
BaySys,Amundsen,2008-02-14,01:40:20,300034012917920,71.7876,-127.0697,18.0490,Actual,,Calculated,271.4400,Calculated,1,7
BaySys,Amundsen,2008-02-14,03:40:22,300034012917920,71.7948,-127.1114,21.0344,Actual,,Calculated,301.3100,Calculated,1,11
BaySys,Amundsen,2008-02-14,05:40:59,300034012917920,71.8026,-127.1519,0.0991,Actual,,Calculated,185.4100,Calculated,1,11
BaySys,Amundsen,2008-02-14,07:41:23,300034012917920,71.8115,-127.1977,4.4173,Actual,,Calculated,296.3800,Calculated,1,10
BaySys,Amundsen,2008-02-14,09:41:59,300034012917920,71.8214,-127.2474,-3.7663,Actual,,Calculated,333.1600,Calculated,1,11
BaySys,Amundsen,2008-02-14,11:42:16,300034012917920,71.8313,-127.2995,-2.3086,Actual,,Calculated,307.2600,Calculated,1,8
BaySys,Amundsen,2008-02-14,13:42:16,300034012917920,71.8446,-127.3492,26.0052,Actual,,Calculated,301.4800,Calculated,1,9
BaySys,Amundsen,2008-02-14,15:43:12,300034012917920,71.8541,-127.3953,-25.0959,Actual,,Calculated,300.2800,Calculated,1,13
BaySys,Amundsen,2008-02-14,17:44:15,300034012917920,71.8627,-127.4412,18.9407,Actual,,Calculated,305.1100,Calculated,1,10
BaySys,Amundsen,2008-02-14,21:48:40,300034012917920,71.8827,-127.5387,-4.8715,Actual,,Calculated,305.5800,Calculated,1,10
BaySys,Amundsen,2008-02-14,23:45:58,300034012917920,71.8929,-127.5840,5.8750,Actual,,Calculated,306.1200,Calculated,1,8
BaySys,Amundsen,2008-02-15,01:46:29,300034012917920,71.9017,-127.6275,-1.0848,Actual,,Calculated,281.5300,Calculated,1,10
BaySys,Amundsen,2008-02-15,03:46:06,300034012917920,71.9091,-127.6688,15.5718,Actual,,Calculated,287.5200,Calculated,1,11
BaySys,Amundsen,2008-02-15,05:46:35,300034012917920,71.9156,-127.7074,0.3979,Actual,,Calculated,224.3200,Calculated,1,10
BaySys,Amundsen,2008-02-15,07:56:20,300034012917920,71.9220,-127.7505,-9.5162,Actual,,Calculated,278.0200,Calculated,1,8
BaySys,Amundsen,2008-02-15,09:57:30,300034012917920,71.9286,-127.7935,-10.1446,Actual,,Calculated,300.5800,Calculated,1,10
BaySys,Amundsen,2008-02-15,12:07:08,300034012917920,71.9357,-127.8373,46.6658,Actual,,Calculated,288.5700,Calculated,1,7
BaySys,Amundsen,2008-02-15,20:07:55,300034012917920,71.9465,-127.9576,-6.1568,Actual,,Calculated,209.2200,Calculated,1,11
BaySys,Amundsen,2008-02-15,22:08:35,300034012917920,71.9469,-127.9823,-0.7989,Actual,,Calculated,332.7800,Calculated,1,9
BaySys,Amundsen,2008-02-16,00:08:04,300034012917920,71.9463,-128.0033,32.4968,Actual,,Calculated,248.1500,Calculated,1,7
BaySys,Amundsen,2008-02-16,02:09:32,300034012917920,71.9450,-128.0237,-14.5313,Actual,,Calculated,269.7700,Calculated,1,10
BaySys,Amundsen,2008-02-16,06:19:12,300034012917920,71.9404,-128.0624,-2.5912,Actual,,Calculated,317.1000,Calculated,1,9
BaySys,Amundsen,2008-02-16,18:19:21,300034012917920,71.9313,-128.1439,2.6113,Actual,,Calculated,43.6900,Calculated,1,10
BaySys,Amundsen,2008-02-16,20:19:24,300034012917920,71.9306,-128.1558,1.3473,Actual,,Calculated,82.3000,Calculated,1,10
BaySys,Amundsen,2008-02-16,22:19:53,300034012917920,71.9303,-128.1660,-2.9624,Actual,,Calculated,252.6400,Calculated,1,10
BaySys,Amundsen,2008-02-17,00:19:44,300034012917920,71.9304,-128.1804,-0.5596,Actual,,Calculated,228.1000,Calculated,1,8
BaySys,Amundsen,2008-02-17,04:20:05,300034012917920,71.9334,-128.2177,-3.6867,Actual,,Calculated,247.0700,Calculated,1,9
BaySys,Amundsen,2008-02-17,06:21:29,300034012917920,71.9358,-128.2359,-4.2513,Actual,,Calculated,305.5400,Calculated,1,9
BaySys,Amundsen,2008-02-17,18:24:09,300034012917920,71.9673,-128.3587,-5.0283,Actual,,Calculated,340.5900,Calculated,1,12
BaySys,Amundsen,2008-02-17,20:23:33,300034012917920,71.9757,-128.3810,-9.4572,Actual,,Calculated,304.0900,Calculated,1,13
BaySys,Amundsen,2008-02-17,22:23:59,300034012917920,71.9853,-128.4023,-4.5590,Actual,,Calculated,282.0800,Calculated,1,8
BaySys,Amundsen,2008-02-18,00:24:05,300034012917920,71.9939,-128.4265,-2.9061,Actual,,Calculated,322.4400,Calculated,1,8
BaySys,Amundsen,2008-02-18,02:23:48,300034012917920,72.0041,-128.4477,-10.9652,Actual,,Calculated,321.5600,Calculated,1,5
BaySys,Amundsen,2008-02-18,04:24:05,300034012917920,72.0143,-128.4640,2.3845,Actual,,Calculated,336.5300,Calculated,1,9
BaySys,Amundsen,2008-02-18,06:23:38,300034012917920,72.0231,-128.4748,2.7144,Actual,,Calculated,344.3000,Calculated,1,9
BaySys,Amundsen,2008-02-18,08:23:42,300034012917920,72.0310,-128.4831,15.8197,Actual,,Calculated,328.6300,Calculated,1,12
BaySys,Amundsen,2008-02-18,10:24:29,300034012917920,72.0362,-128.4925,-4.9517,Actual,,Calculated,302.3600,Calculated,1,9
BaySys,Amundsen,2008-02-18,12:24:23,300034012917920,72.0408,-128.5061,-2.1499,Actual,,Calculated,242.3300,Calculated,1,9
BaySys,Amundsen,2008-02-18,14:24:02,300034012917920,72.0445,-128.5227,18.1515,Actual,,Calculated,249.9700,Calculated,1,10
BaySys,Amundsen,2008-02-18,16:24:23,300034012917920,72.0459,-128.5391,-0.4431,Actual,,Calculated,62.1900,Calculated,1,11
BaySys,Amundsen,2008-02-18,18:24:14,300034012917920,72.0458,-128.5545,16.7358,Actual,,Calculated,45.0000,Calculated,1,12
BaySys,Amundsen,2008-02-18,20:23:56,300034012917920,72.0457,-128.5692,-7.2117,Actual,,Calculated,251.0100,Calculated,1,12
BaySys,Amundsen,2008-02-18,22:24:35,300034012917920,72.0480,-128.5864,-1.3614,Actual,,Calculated,273.0400,Calculated,1,8
BaySys,Amundsen,2008-02-19,00:24:35,300034012917920,72.0513,-128.6045,-0.6530,Actual,,Calculated,295.8800,Calculated,1,9
BaySys,Amundsen,2008-02-19,02:24:35,300034012917920,72.0529,-128.6226,-9.7477,Actual,,Calculated,292.8700,Calculated,1,11
BaySys,Amundsen,2008-02-19,04:24:30,300034012917920,72.0538,-128.6471,7.1891,Actual,,Calculated,274.5100,Calculated,1,10
BaySys,Amundsen,2008-02-19,06:24:04,300034012917920,72.0540,-128.6716,1.7114,Actual,,Calculated,254.2300,Calculated,1,10
BaySys,Amundsen,2008-02-19,08:24:35,300034012917920,72.0531,-128.6887,0.6089,Actual,,Calculated,264.1100,Calculated,1,10
BaySys,Amundsen,2008-02-19,10:24:35,300034012917920,72.0484,-128.6987,4.7267,Actual,,Calculated,17.6000,Calculated,1,6
BaySys,Amundsen,2008-02-19,12:24:25,300034012917920,72.0426,-128.7111,-3.2877,Actual,,Calculated,184.2900,Calculated,1,5
BaySys,Amundsen,2008-02-19,14:24:11,300034012917920,72.0374,-128.7299,-0.0870,Actual,,Calculated,204.2200,Calculated,1,9
BaySys,Amundsen,2008-02-19,16:24:35,300034012917920,72.0332,-128.7563,-2.2920,Actual,,Calculated,326.1300,Calculated,1,11
BaySys,Amundsen,2008-02-19,18:24:32,300034012917920,72.0295,-128.7824,3.7946,Actual,,Calculated,3.3300,Calculated,1,11
BaySys,Amundsen,2008-02-19,20:24:20,300034012917920,72.0250,-128.8008,-3.7851,Actual,,Calculated,219.5900,Calculated,1,13
BaySys,Amundsen,2008-02-19,22:24:53,300034012917920,72.0183,-128.8155,4.4021,Actual,,Calculated,220.1200,Calculated,1,9
BaySys,Amundsen,2008-02-20,00:24:57,300034012917920,72.0119,-128.8310,9.1745,Actual,,Calculated,220.5700,Calculated,1,9
BaySys,Amundsen,2008-02-20,02:24:28,300034012917920,72.0066,-128.8500,4.6614,Actual,,Calculated,246.4000,Calculated,1,10
BaySys,Amundsen,2008-02-20,04:24:59,300034012917920,72.0033,-128.8777,2.3779,Actual,,Calculated,345.9000,Calculated,1,9
BaySys,Amundsen,2008-02-20,06:24:50,300034012917920,72.0028,-128.9054,3.8438,Actual,,Calculated,246.4800,Calculated,1,13
BaySys,Amundsen,2008-02-20,08:24:33,300034012917920,72.0039,-128.9321,9.4679,Actual,,Calculated,291.4600,Calculated,1,10
BaySys,Amundsen,2008-02-20,10:25:23,300034012917920,72.0049,-128.9528,3.5723,Actual,,Calculated,313.6700,Calculated,1,10
BaySys,Amundsen,2008-02-20,12:24:56,300034012917920,72.0041,-128.9703,-2.5300,Actual,,Calculated,332.6200,Calculated,1,9
BaySys,Amundsen,2008-02-20,14:24:45,300034012917920,72.0043,-128.9956,154.2437,Actual,,Calculated,263.0700,Calculated,1,6
BaySys,Amundsen,2008-02-20,16:25:23,300034012917920,72.0064,-129.0262,14.0802,Actual,,Calculated,17.6300,Calculated,1,10
BaySys,Amundsen,2008-02-20,18:25:23,300034012917920,72.0111,-129.0650,-3.4770,Actual,,Calculated,296.1200,Calculated,1,11
BaySys,Amundsen,2008-02-20,20:25:01,300034012917920,72.0199,-129.1127,-5.6126,Actual,,Calculated,262.9900,Calculated,1,8
BaySys,Amundsen,2008-02-20,22:24:50,300034012917920,72.0266,-129.1558,-2.5045,Actual,,Calculated,296.8500,Calculated,1,9
BaySys,Amundsen,2008-02-21,00:25:29,300034012917920,72.0358,-129.2011,-2.1851,Actual,,Calculated,300.3200,Calculated,1,8
BaySys,Amundsen,2008-02-21,02:24:51,300034012917920,72.0440,-129.2593,-9.6422,Actual,,Calculated,297.6600,Calculated,1,10
BaySys,Amundsen,2008-02-21,04:25:35,300034012917920,72.0533,-129.3159,8.5344,Actual,,Calculated,305.9400,Calculated,1,10
BaySys,Amundsen,2008-02-21,06:25:24,300034012917920,72.0650,-129.3703,18.4302,Actual,,Calculated,304.9200,Calculated,1,11
BaySys,Amundsen,2008-02-21,08:24:59,300034012917920,72.0757,-129.4214,4.8618,Actual,,Calculated,313.1500,Calculated,1,11
BaySys,Amundsen,2008-02-21,10:25:35,300034012917920,72.0852,-129.4704,-3.4023,Actual,,Calculated,295.0200,Calculated,1,5
BaySys,Amundsen,2008-02-21,12:25:35,300034012917920,72.0928,-129.5175,4.7543,Actual,,Calculated,293.3200,Calculated,1,8
BaySys,Amundsen,2008-02-21,14:25:04,300034012917920,72.0986,-129.5687,4.1447,Actual,,Calculated,289.8200,Calculated,1,11
BaySys,Amundsen,2008-02-21,16:25:35,300034012917920,72.1036,-129.6232,14.6694,Actual,,Calculated,334.9300,Calculated,1,10
BaySys,Amundsen,2008-02-21,18:25:26,300034012917920,72.1102,-129.6835,-6.2453,Actual,,Calculated,262.5500,Calculated,1,8
BaySys,Amundsen,2008-02-21,20:25:14,300034012917920,72.1167,-129.7404,6.8051,Actual,,Calculated,273.0000,Calculated,1,12
BaySys,Amundsen,2008-02-21,22:25:59,300034012917920,72.1213,-129.7925,-5.6436,Actual,,Calculated,271.1500,Calculated,1,11
BaySys,Amundsen,2008-02-22,00:25:19,300034012917920,72.1233,-129.8395,0.6071,Actual,,Calculated,297.3000,Calculated,1,9
BaySys,Amundsen,2008-02-22,02:25:23,300034012917920,72.1247,-129.8919,-2.9426,Actual,,Calculated,279.7100,Calculated,1,10
BaySys,Amundsen,2008-02-22,04:26:05,300034012917920,72.1276,-129.9528,-0.0739,Actual,,Calculated,282.6300,Calculated,1,10
BaySys,Amundsen,2008-02-22,06:25:59,300034012917920,72.1344,-130.0199,3.9408,Actual,,Calculated,329.3800,Calculated,1,12
BaySys,Amundsen,2008-02-22,08:25:32,300034012917920,72.1433,-130.0848,21.8662,Actual,,Calculated,305.7000,Calculated,1,11
BaySys,Amundsen,2008-02-22,10:26:05,300034012917920,72.1512,-130.1402,4.1818,Actual,,Calculated,280.7300,Calculated,1,10
BaySys,Amundsen,2008-02-22,12:25:54,300034012917920,72.1564,-130.1913,6.9746,Actual,,Calculated,277.9800,Calculated,1,6
BaySys,Amundsen,2008-02-22,14:25:35,300034012917920,72.1610,-130.2501,-1.9341,Actual,,Calculated,281.8500,Calculated,1,10
BaySys,Amundsen,2008-02-22,16:26:05,300034012917920,72.1676,-130.3189,-3.0281,Actual,,Calculated,336.1300,Calculated,1,9
BaySys,Amundsen,2008-02-22,18:26:05,300034012917920,72.1772,-130.3908,6.9255,Actual,,Calculated,294.3000,Calculated,1,9
BaySys,Amundsen,2008-02-22,20:25:42,300034012917920,72.1874,-130.4553,2.5052,Actual,,Calculated,284.4400,Calculated,1,12
BaySys,Amundsen,2008-02-22,22:26:29,300034012917920,72.1947,-130.5112,0.3645,Actual,,Calculated,279.1200,Calculated,1,9
BaySys,Amundsen,2008-02-23,00:26:06,300034012917920,72.1984,-130.5651,-5.6344,Actual,,Calculated,266.4000,Calculated,1,8
BaySys,Amundsen,2008-02-23,02:25:52,300034012917920,72.2010,-130.6204,-4.4049,Actual,,Calculated,292.6000,Calculated,1,10
BaySys,Amundsen,2008-02-23,04:26:35,300034012917920,72.2041,-130.6795,11.3508,Actual,,Calculated,281.8700,Calculated,1,10